TimeEDT,TemperatureF,Dew PointF,Humidity,Sea Level PressureIn,VisibilityMPH,Wind Direction,Wind SpeedMPH,Gust SpeedMPH,PrecipitationIn,Events,Conditions,WindDirDegrees,DateUTC
12:53 AM,73.0,61.0,66,29.84,10.0,NE,4.6,-,N/A,,Clear,40,2012-10-17 04:53:00
1:53 AM,72.0,61.0,68,29.84,10.0,NE,3.5,-,N/A,,Clear,40,2012-10-17 05:53:00
2:53 AM,71.1,61.0,70,29.83,10.0,NE,3.5,-,N/A,,Clear,40,2012-10-17 06:53:00
3:53 AM,71.1,62.1,73,29.83,10.0,Calm,Calm,-,N/A,,Clear,0,2012-10-17 07:53:00
4:53 AM,70.0,63.0,78,29.82,10.0,East,3.5,-,N/A,,Clear,90,2012-10-17 08:53:00
5:53 AM,70.0,64.9,84,29.82,10.0,East,3.5,-,N/A,,Clear,100,2012-10-17 09:53:00
6:53 AM,71.1,66.0,84,29.83,10.0,East,3.5,-,N/A,,Clear,80,2012-10-17 10:53:00
7:53 AM,71.1,66.9,87,29.85,10.0,Calm,Calm,-,N/A,,Clear,0,2012-10-17 11:53:00
8:53 AM,73.0,66.9,81,29.87,10.0,North,3.5,-,N/A,,Clear,360,2012-10-17 12:53:00
9:30 AM,73.4,68.0,83,29.89,10.0,North,5.8,-,N/A,,Mostly Cloudy,360,2012-10-17 13:30:00
9:53 AM,75.0,68.0,79,29.88,10.0,NNE,4.6,-,N/A,,Overcast,20,2012-10-17 13:53:00
10:21 AM,75.2,68.0,78,29.89,10.0,NE,4.6,-,N/A,,Mostly Cloudy,50,2012-10-17 14:21:00
10:34 AM,75.2,68.0,78,29.89,10.0,NE,4.6,-,N/A,,Scattered Clouds,40,2012-10-17 14:34:00
10:53 AM,75.0,68.0,79,29.89,10.0,North,5.8,-,N/A,,Overcast,10,2012-10-17 14:53:00
11:53 AM,77.0,69.1,76,29.89,10.0,NNE,3.5,-,N/A,,Clear,30,2012-10-17 15:53:00
12:53 PM,79.0,69.1,72,29.88,10.0,Variable,3.5,-,N/A,,Clear,0,2012-10-17 16:53:00
1:53 PM,80.1,66.9,64,29.85,10.0,NW,5.8,-,N/A,,Clear,320,2012-10-17 17:53:00
2:53 PM,80.1,66.0,62,29.84,10.0,NNW,5.8,-,N/A,,Clear,340,2012-10-17 18:53:00
3:53 PM,80.1,66.9,64,29.83,10.0,Calm,Calm,-,0.00,Rain,Light Rain,0,2012-10-17 19:53:00
4:53 PM,78.1,68.0,71,29.83,10.0,WNW,4.6,-,0.00,,Scattered Clouds,290,2012-10-17 20:53:00
5:53 PM,78.1,68.0,71,29.81,10.0,Calm,Calm,-,0.00,Rain,Light Rain,0,2012-10-17 21:53:00
6:53 PM,77.0,69.1,76,29.81,10.0,North,4.6,-,0.00,,Clear,10,2012-10-17 22:53:00
7:53 PM,75.9,68.0,76,29.82,10.0,Calm,Calm,-,N/A,,Clear,0,2012-10-17 23:53:00
8:53 PM,73.0,68.0,84,29.84,10.0,Calm,Calm,-,N/A,,Clear,0,2012-10-18 00:53:00
9:53 PM,71.1,68.0,90,29.86,10.0,East,3.5,-,N/A,,Partly Cloudy,80,2012-10-18 01:53:00
10:53 PM,71.1,68.0,90,29.87,10.0,East,3.5,-,N/A,,Clear,100,2012-10-18 02:53:00
11:53 PM,72.0,69.1,91,29.86,10.0,East,3.5,-,N/A,,Scattered Clouds,100,2012-10-18 03:53:00